Location: Barcelona
(41.3829°N, 2.1774°E)
Time: 13:30:39
(UTC+00:00)

ISS - Pass Details

Date: 11 July 2024
Orbit: 410 x 424 km, 51.6° (Epoch: 14 July)

Event Time Altitude Azimuth Distance (km) Brightness Sun altitude
Rises 21:46:40 0° 273° (W) 2,335 0.5 -19.8°
Reaches altitude 10° 21:49:06 10° 290° (WNW) 1,476 -0.3 -20.1°
Maximum altitude 21:51:42 21° 342° (NNW) 988 -1.0 -20.3°
Drops below altitude 10° 21:54:18 10° 33° (NNE) 1,481 -0.7 -20.6°
Sets 21:56:45 0° 51° (NE) 2,347 0.2 -20.8°
